W4GAP Weather Reports


Display with metric or nautical units.
time (UTC)temp
F
wind
direction
speed
MPH
gust
MPH
rain 1hr
in
rain 24hr
in
rain mn
in
humidity
%
barometer
mb
20260505210933 78 282 0.0 2.0 0.00 0.00 0.00 38 1010.3
20260505210431 77 298 1.0 3.0 0.00 0.00 0.00 40 1010.7
20260505205927 77 179 2.0 3.0 0.00 0.00 0.00 40 1010.8
20260505205426 77 231 1.0 3.0 0.00 0.00 0.00 40 1010.8
20260505204922 77 307 0.0 2.0 0.00 0.00 0.00 41 1010.9
20260505204420 77 293 0.0 1.0 0.00 0.00 0.00 41 1010.7
20260505203917 77 321 0.0 3.0 0.00 0.00 0.00 41 1010.8
20260505203413 78 308 1.0 2.0 0.00 0.00 0.00 38 1010.9
20260505202910 78 281 1.0 3.0 0.00 0.00 0.00 38 1010.8
20260505202406 77 303 1.0 3.0 0.00 0.00 0.00 39 1010.9
20260505201903 78 297 0.0 6.0 0.00 0.00 0.00 39 1011.1
20260505201400 78 231 3.0 5.0 0.00 0.00 0.00 38 1011.3
20260505200858 78 301 1.0 3.0 0.00 0.00 0.00 38 1011.4
20260505200355 78 294 0.0 6.0 0.00 0.00 0.00 40 1011.1
20260505195850 77 231 3.0 5.0 0.00 0.00 0.00 39 1011.5
20260505195348 78 233 2.0 6.0 0.00 0.00 0.00 38 1011.5
20260505194845 78 230 1.0 2.0 0.00 0.00 0.00 41 1011.7
20260505194343 77 251 0.0 2.0 0.00 0.00 0.00 41 1011.8
20260505193838 76 286 0.0 2.0 0.00 0.00 0.00 41 1011.8
20260505193336 77 295 0.0 3.0 0.00 0.00 0.00 40 1011.8
20260505192833 77 295 0.0 1.0 0.00 0.00 0.00 40 1011.5
20260505192331 78 308 0.0 5.0 0.00 0.00 0.00 38 1011.8
20260505191829 78 270 0.0 7.0 0.00 0.00 0.00 40 1011.7
20260505191327 78 287 1.0 1.0 0.00 0.00 0.00 39 1011.9
20260505190823 78 295 1.0 1.0 0.00 0.00 0.00 39 1011.7
20260505190319 78 293 1.0 2.0 0.00 0.00 0.00 39 1011.9
20260505185815 79 220 3.0 5.0 0.00 0.00 0.00 37 1011.7
20260505185312 79 269 2.0 6.0 0.00 0.00 0.00 37 1011.8
20260505184807 78 275 0.0 2.0 0.00 0.00 0.00 38 1012.1
20260505184305 77 23 1.0 3.0 0.00 0.00 0.00 40 1012.2
20260505183802 78 244 1.0 3.0 0.00 0.00 0.00 39 1012.3
20260505183259 79 295 1.0 3.0 0.00 0.00 0.00 38 1012.1
20260505182755 79 291 0.0 0.0 0.00 0.00 0.00 39 1012.3
20260505182252 79 298 0.0 2.0 0.00 0.00 0.00 39 1012.4
20260505181749 80 188 2.0 3.0 0.00 0.00 0.00 38 1012.3
20260505181246 79 302 0.0 5.0 0.00 0.00 0.00 39 1012.3
20260505180742 79 304 2.0 5.0 0.00 0.00 0.00 38 1012.6
20260505180239 78 244 1.0 3.0 0.00 0.00 0.00 39 1012.5
20260505175735 78 300 0.0 3.0 0.00 0.00 0.00 41 1013.0
20260505175232 78 288 1.0 7.0 0.00 0.00 0.00 42 1012.7
20260505174729 78 315 0.0 5.0 0.00 0.00 0.00 41 1012.7
20260505174226 78 280 3.0 3.0 0.00 0.00 0.00 42 1013.0
20260505173722 77 285 1.0 6.0 0.00 0.00 0.00 43 1013.1
20260505173219 78 253 1.0 1.0 0.00 0.00 0.00 42 1012.9
20260505172716 80 162 4.0 6.0 0.00 0.00 0.00 40 1013.1
20260505172213 79 304 0.0 2.0 0.00 0.00 0.00 42 1012.9
20260505171712 79 310 2.0 2.0 0.00 0.00 0.00 39 1013.1
20260505171210 79 303 0.0 2.0 0.00 0.00 0.00 40 1013.1
20260505170706 79 306 0.0 1.0 0.00 0.00 0.00 40 1013.0
20260505170203 78 298 0.0 2.0 0.00 0.00 0.00 40 1013.1
20260505165658 78 289 0.0 5.0 0.00 0.00 0.00 41 1012.9
20260505165154 79 302 1.0 2.0 0.00 0.00 0.00 40 1012.9
20260505164650 77 294 0.0 6.0 0.00 0.00 0.00 41 1012.9
20260505164147 77 238 4.0 5.0 0.00 0.00 0.00 40 1012.8
20260505163645 78 302 1.0 5.0 0.00 0.00 0.00 41 1013.1
20260505163143 78 270 3.0 5.0 0.00 0.00 0.00 41 1012.9
20260505162640 78 302 1.0 3.0 0.00 0.00 0.00 45 1013.2
20260505162138 78 267 3.0 6.0 0.00 0.00 0.00 42 1013.0
20260505161635 78 270 1.0 2.0 0.00 0.00 0.00 43 1013.2
20260505161132 77 259 1.0 8.0 0.00 0.00 0.00 43 1013.3
20260505160630 77 244 2.0 2.0 0.00 0.00 0.00 44 1013.4
20260505160127 76 300 1.0 2.0 0.00 0.00 0.00 43 1013.3
20260505153107 74 295 2.0 2.0 0.00 0.00 0.00 46 1013.3
20260505152603 74 302 0.0 0.0 0.00 0.00 0.00 48 1013.4
20260505152059 73 298 0.0 2.0 0.00 0.00 0.00 48 1013.2
20260505151554 72 301 0.0 1.0 0.00 0.00 0.00 51 1013.2
20260505151052 71 299 0.0 1.0 0.00 0.00 0.00 51 1013.4
20260505150548 70 303 0.0 2.0 0.00 0.00 0.00 56 1013.7
20260505140514 65 306 0.0 0.0 0.00 0.00 0.00 66 1013.5
20260505124926 58 299 0.0 0.0 0.00 0.00 0.00 75 1012.7
20260505124424 57 301 0.0 0.0 0.00 0.00 0.00 76 1013.1
20260505123919 57 301 0.0 0.0 0.00 0.00 0.00 76 1012.8
20260505123416 57 301 0.0 0.0 0.00 0.00 0.00 77 1012.8
20260505122912 56 298 0.0 0.0 0.00 0.00 0.00 77 1012.8
20260505122410 56 297 0.0 0.0 0.00 0.00 0.00 76 1012.9
20260505121906 55 293 0.0 0.0 0.00 0.00 0.00 77 1012.9
20260505121403 55 297 0.0 0.0 0.00 0.00 0.00 80 1012.8
20260505120859 54 297 0.0 0.0 0.00 0.00 0.00 80 1012.8
20260505120356 54 296 0.0 0.0 0.00 0.00 0.00 82 1013.0
20260505115854 53 296 0.0 0.0 0.00 0.00 0.00 82 1012.8
20260505115352 53 296 0.0 0.0 0.00 0.00 0.00 84 1012.8
20260505114849 52 296 0.0 0.0 0.00 0.00 0.00 86 1012.5
20260505114346 52 300 0.0 0.0 0.00 0.00 0.00 88 1012.5
20260505113842 51 300 0.0 0.0 0.00 0.00 0.00 87 1012.5
20260505113339 51 299 0.0 0.0 0.00 0.00 0.00 88 1012.5
20260505112834 51 300 0.0 0.0 0.00 0.00 0.00 88 1012.2
20260505112332 51 299 0.0 0.0 0.00 0.00 0.00 87 1012.0
20260505111827 51 299 0.0 0.0 0.00 0.00 0.00 87 1012.1
20260505111323 51 299 0.0 0.0 0.00 0.00 0.00 88 1012.1
20260505110819 51 299 0.0 0.0 0.00 0.00 0.00 87 1012.0
20260505110317 51 300 0.0 0.0 0.00 0.00 0.00 86 1012.3
20260505101751 51 303 0.0 0.0 0.00 0.00 0.00 87 1011.8
20260505101247 51 303 0.0 0.0 0.00 0.00 0.00 86 1011.7
20260505100743 51 303 0.0 0.0 0.00 0.00 0.00 86 1012.0
20260505100240 51 303 0.0 0.0 0.00 0.00 0.00 86 1012.0
20260505095736 51 303 0.0 0.0 0.00 0.00 0.00 86 1012.0
20260505095234 51 303 0.0 0.0 0.00 0.00 0.00 86 1012.0
20260505094729 52 303 0.0 0.0 0.00 0.00 0.00 86 1012.1
20260505094226 52 303 0.0 0.0 0.00 0.00 0.00 86 1012.2
20260505093722 52 303 0.0 0.0 0.00 0.00 0.00 86 1011.8
20260505093220 52 303 0.0 0.0 0.00 0.00 0.00 86 1011.7
20260505092716 52 303 0.0 0.0 0.00 0.00 0.00 86 1011.7
20260505092215 52 303 0.0 0.0 0.00 0.00 0.00 86 1011.8
20260505091712 52 303 0.0 0.0 0.00 0.00 0.00 86 1011.6
20260505091210 52 303 0.0 0.0 0.00 0.00 0.00 86 1012.0
20260505090707 52 303 0.0 0.0 0.00 0.00 0.00 85 1011.9
20260505090205 52 303 0.0 0.0 0.00 0.00 0.00 85 1012.1
20260505085703 52 303 0.0 0.0 0.00 0.00 0.00 85 1012.3
20260505085201 52 303 0.0 0.0 0.00 0.00 0.00 84 1012.1
20260505084658 53 303 0.0 0.0 0.00 0.00 0.00 83 1011.9
20260505084156 53 303 0.0 0.0 0.00 0.00 0.00 83 1012.0
20260505083653 53 303 0.0 0.0 0.00 0.00 0.00 85 1012.1
20260505083150 53 303 0.0 0.0 0.00 0.00 0.00 84 1011.9
20260505082646 53 303 0.0 0.0 0.00 0.00 0.00 83 1012.4
20260505082143 53 303 0.0 0.0 0.00 0.00 0.00 84 1012.1
20260505081639 53 303 0.0 0.0 0.00 0.00 0.00 84 1012.2
20260505081137 53 303 0.0 0.0 0.00 0.00 0.00 84 1012.0
20260505080633 53 303 0.0 0.0 0.00 0.00 0.00 83 1012.3
20260505080129 53 303 0.0 0.0 0.00 0.00 0.00 83 1012.2
20260505075625 53 303 0.0 0.0 0.00 0.00 0.00 83 1012.2
20260505075122 53 303 0.0 0.0 0.00 0.00 0.00 83 1012.0
20260505074619 53 303 0.0 0.0 0.00 0.00 0.00 83 1012.1
20260505074116 53 303 0.0 0.0 0.00 0.00 0.00 82 1011.9
20260505073614 53 303 0.0 0.0 0.00 0.00 0.00 81 1012.1
20260505073112 54 303 0.0 0.0 0.00 0.00 0.00 82 1012.0
20260505072607 54 303 0.0 0.0 0.00 0.00 0.00 82 1012.0
20260505072104 54 303 0.0 0.0 0.00 0.00 0.00 81 1011.9
20260505071559 54 302 0.0 0.0 0.00 0.00 0.00 81 1012.2
20260505071058 54 303 0.0 0.0 0.00 0.00 0.00 81 1012.1
20260505070555 54 302 0.0 0.0 0.00 0.00 0.00 81 1012.2
20260505070050 54 303 0.0 0.0 0.00 0.00 0.00 80 1012.1
20260505065546 54 302 0.0 0.0 0.00 0.00 0.00 80 1011.8
20260505065044 55 302 0.0 0.0 0.00 0.00 0.00 79 1012.1
20260505064540 55 302 0.0 0.0 0.00 0.00 0.00 79 1012.0
20260505064039 55 302 0.0 0.0 0.00 0.00 0.00 79 1012.1
20260505063536 55 302 0.0 0.0 0.00 0.00 0.00 79 1012.1
20260505063031 55 302 0.0 0.0 0.00 0.00 0.00 79 1012.1
20260505062528 55 302 0.0 0.0 0.00 0.00 0.00 78 1012.3
20260505062026 55 302 0.0 0.0 0.00 0.00 0.00 78 1012.3
20260505061523 55 302 0.0 0.0 0.00 0.00 0.00 79 1012.3
20260505061021 55 302 0.0 0.0 0.00 0.00 0.00 78 1012.3
20260505060518 55 302 0.0 0.0 0.00 0.00 0.00 78 1012.4
20260505060015 56 302 0.0 0.0 0.00 0.00 0.00 77 1012.3
20260505055510 56 302 0.0 0.0 0.00 0.00 0.00 77 1012.4
20260505055007 56 302 0.0 0.0 0.00 0.00 0.00 77 1012.3
20260505054504 56 302 0.0 0.0 0.00 0.00 0.00 77 1012.3
20260505054002 56 302 0.0 0.0 0.00 0.00 0.00 77 1012.4
20260505053459 56 302 0.0 0.0 0.00 0.00 0.00 76 1012.1
20260505052955 56 301 0.0 0.0 0.00 0.00 0.00 75 1012.2
20260505052453 57 301 0.0 0.0 0.00 0.00 0.00 75 1012.4
20260505051950 57 301 0.0 0.0 0.00 0.00 0.00 75 1012.4
20260505051447 57 301 0.0 0.0 0.00 0.00 0.00 74 1012.2
20260505050945 57 301 0.0 0.0 0.00 0.00 0.00 74 1012.4
20260505050443 57 301 0.0 0.0 0.00 0.00 0.00 74 1012.2
20260505041411 59 301 0.0 0.0 0.00 0.00 0.00 70 1012.3
20260505040908 59 301 0.0 0.0 0.00 0.00 0.00 70 1012.3
20260505040405 59 301 0.0 0.0 0.00 0.00 0.00 69 1012.3
20260505035902 59 301 0.0 0.0 0.00 0.00 0.00 70 1012.3
20260505035357 59 301 0.0 0.0 0.00 0.00 0.00 70 1012.2
20260505034855 60 301 0.0 0.0 0.00 0.00 0.00 69 1012.5
20260505034351 60 301 0.0 0.0 0.00 0.00 0.00 69 1012.4
20260505033849 60 301 0.0 0.0 0.00 0.00 0.00 69 1012.6
20260505033345 60 301 0.0 0.0 0.00 0.00 0.00 68 1012.3
20260505032844 60 301 0.0 0.0 0.00 0.00 0.00 69 1012.7
20260505032340 60 301 0.0 0.0 0.00 0.00 0.00 68 1012.5
20260505031837 60 301 0.0 0.0 0.00 0.00 0.00 67 1012.6
20260505031333 61 301 0.0 0.0 0.00 0.00 0.00 67 1012.6
20260505030831 61 301 0.0 0.0 0.00 0.00 0.00 67 1012.3
20260505030327 61 301 0.0 0.0 0.00 0.00 0.00 66 1012.4
20260505025822 61 301 0.0 0.0 0.00 0.00 0.00 65 1012.4
20260505025320 62 301 0.0 0.0 0.00 0.00 0.00 64 1012.5
20260505024819 62 301 0.0 0.0 0.00 0.00 0.00 63 1012.3
20260505024316 62 301 0.0 0.0 0.00 0.00 0.00 63 1012.4
20260505023813 62 301 0.0 0.0 0.00 0.00 0.00 62 1012.6
20260505023310 62 301 0.0 0.0 0.00 0.00 0.00 61 1012.3
20260505022807 62 301 0.0 0.0 0.00 0.00 0.00 61 1012.2
20260505022304 63 301 0.0 0.0 0.00 0.00 0.00 60 1012.3
20260505021801 63 300 0.0 0.0 0.00 0.00 0.00 59 1012.5
20260505021258 63 299 0.0 0.0 0.00 0.00 0.00 59 1012.3
20260505020753 63 299 0.0 0.0 0.00 0.00 0.00 59 1012.1
20260505020248 64 299 0.0 0.0 0.00 0.00 0.00 58 1012.1
20260505015746 64 299 0.0 0.0 0.00 0.00 0.00 58 1012.1
20260505015243 64 299 0.0 0.0 0.00 0.00 0.00 58 1012.2
20260505014740 65 299 0.0 0.0 0.00 0.00 0.00 57 1012.0
20260505014238 65 299 0.0 0.0 0.00 0.00 0.00 55 1012.0
20260505013734 65 299 0.0 0.0 0.00 0.00 0.00 55 1012.0
20260505013231 66 299 0.0 0.0 0.00 0.00 0.00 54 1011.8
20260505012729 66 299 0.0 0.0 0.00 0.00 0.00 54 1011.9
20260505012226 66 299 0.0 0.0 0.00 0.00 0.00 53 1011.9
20260505011722 67 299 0.0 0.0 0.00 0.00 0.00 52 1012.0
20260505011220 67 299 0.0 0.0 0.00 0.00 0.00 51 1011.8
20260505010715 68 299 0.0 0.0 0.00 0.00 0.00 52 1011.8
20260505010212 68 297 0.0 0.0 0.00 0.00 0.00 48 1011.6
20260505005708 68 297 0.0 0.0 0.00 0.00 0.00 48 1011.5
20260505005205 69 297 0.0 0.0 0.00 0.00 0.00 46 1011.6
20260505004702 69 297 0.0 0.0 0.00 0.00 0.00 46 1011.5
20260505004159 69 297 0.0 0.0 0.00 0.00 0.00 47 1011.4
20260505003656 70 297 0.0 0.0 0.00 0.00 0.00 44 1011.6
20260505003153 70 296 0.0 0.0 0.00 0.00 0.00 44 1011.3
20260505002649 70 296 0.0 0.0 0.00 0.00 0.00 44 1011.4
20260505002148 71 295 0.0 0.0 0.00 0.00 0.00 43 1011.3
20260505001644 71 296 0.0 0.0 0.00 0.00 0.00 45 1011.3
20260505001142 71 296 0.0 0.0 0.00 0.00 0.00 42 1011.2
20260505000638 72 288 0.0 0.0 0.00 0.00 0.00 43 1011.4
20260505000137 72 292 0.0 0.0 0.00 0.00 0.00 42 1011.4
20260504235633 72 291 0.0 0.0 0.00 0.00 0.00 42 1011.2
20260504235129 72 294 0.0 0.0 0.00 0.00 0.00 41 1011.3
20260504234626 73 296 0.0 0.0 0.00 0.00 0.00 40 1011.3
20260504234124 73 301 0.0 0.0 0.00 0.00 0.00 41 1011.3
20260504233619 73 289 0.0 1.0 0.00 0.00 0.00 40 1011.4
20260504233115 73 294 0.0 0.0 0.00 0.00 0.00 41 1011.2
20260504232614 74 294 0.0 0.0 0.00 0.00 0.00 41 1011.1
20260504232111 74 286 1.0 2.0 0.00 0.00 0.00 39 1011.2
20260504231607 75 279 1.0 2.0 0.00 0.00 0.00 39 1011.3
20260504231103 75 295 1.0 1.0 0.00 0.00 0.00 38 1011.3
20260504230559 75 301 1.0 3.0 0.00 0.00 0.00 37 1011.1
20260504230059 75 299 1.0 2.0 0.00 0.00 0.00 37 1011.0
20260504225555 75 276 0.0 3.0 0.00 0.00 0.00 37 1011.1
20260504225052 76 295 1.0 2.0 0.00 0.00 0.00 36 1011.2
20260504224549 75 301 0.0 0.0 0.00 0.00 0.00 38 1011.0
20260504224046 76 288 0.0 0.0 0.00 0.00 0.00 37 1011.2
20260504223543 76 293 0.0 1.0 0.00 0.00 0.00 37 1011.2
20260504223038 75 284 1.0 1.0 0.00 0.00 0.00 38 1011.4
20260504222536 75 294 1.0 2.0 0.00 0.00 0.00 37 1011.2
20260504222033 76 301 1.0 2.0 0.00 0.00 0.00 37 1011.2
20260504221530 76 289 0.0 5.0 0.00 0.00 0.00 36 1011.2
20260504221027 77 273 2.0 2.0 0.00 0.00 0.00 38 1011.1
20260504220523 77 300 0.0 2.0 0.00 0.00 0.00 36 1011.0
20260504220021 77 300 0.0 3.0 0.00 0.00 0.00 37 1011.1
20260504215517 77 309 0.0 2.0 0.00 0.00 0.00 37 1011.2
20260504215015 77 295 0.0 1.0 0.00 0.00 0.00 37 1011.1
20260504214510 77 275 2.0 2.0 0.00 0.00 0.00 37 1011.0
20260504214007 77 287 1.0 2.0 0.00 0.00 0.00 35 1011.0
20260504213503 77 259 1.0 1.0 0.00 0.00 0.00 38 1011.1
20260504213001 77 296 1.0 1.0 0.00 0.00 0.00 37 1011.2
20260504212456 77 299 1.0 3.0 0.00 0.00 0.00 37 1011.0
20260504211954 77 313 0.0 2.0 0.00 0.00 0.00 37 1011.2
20260504211450 77 300 0.0 0.0 0.00 0.00 0.00 37 1011.1